Date,TemperatureHighF,TemperatureAvgF,TemperatureLowF,DewpointHighF,DewpointAvgF,DewpointLowF,HumidityHigh,HumidityAvg,HumidityLow,PressureMaxIn,PressureMinIn,WindSpeedMaxMPH,WindSpeedAvgMPH,GustSpeedMaxMPH,PrecipitationSumIn
2013-1-1,19.7,12.4,4.9,12.8,6.7,1.3,87,78,62,30.33,30.19,9,3,12,0.00
2013-1-2,30.6,19.3,5.4,24.4,14.4,2.1,88,81,73,30.27,30.10,14,7,17,0.00
2013-1-3,29.4,23.6,10.9,26.8,19.4,7.0,90,84,72,30.37,30.15,19,8,26,0.00
2013-1-4,33.7,21.9,10.0,26.9,17.8,6.7,92,84,73,30.35,30.23,16,8,22,0.00
2013-1-5,35.9,29.2,18.8,33.9,26.7,16.4,94,90,82,30.26,29.97,19,9,23,0.00
2013-1-6,32.3,21.6,14.9,27.3,17.9,12.0,91,86,77,30.35,29.98,20,8,24,0.00
2013-1-7,39.3,28.6,14.9,31.2,24.0,12.0,90,83,66,30.34,30.09,20,10,23,0.00
2013-1-8,43.2,34.9,27.6,35.5,30.4,24.5,89,84,73,30.15,30.00,14,9,20,0.00
2013-1-9,45.1,36.2,28.3,36.3,31.0,25.4,91,82,61,30.50,30.03,13,6,17,0.00
2013-1-10,40.1,33.7,26.5,37.9,31.0,24.3,99,90,73,30.49,29.81,17,5,21,0.95
2013-1-11,53.1,46.3,36.9,51.4,45.1,36.4,100,96,87,29.81,29.60,18,9,23,0.16
2013-1-12,51.4,35.2,21.3,47.6,30.9,18.8,93,84,76,30.04,29.64,19,9,25,0.00
2013-1-13,21.5,16.6,10.0,19.4,11.8,6.6,92,81,74,30.33,29.94,17,8,20,0.00
2013-1-14,28.4,14.9,6.6,15.2,9.1,3.8,89,78,51,30.52,30.33,8,2,12,0.00
2013-1-15,29.7,17.6,8.3,19.4,12.4,5.7,90,81,59,30.48,30.17,8,2,12,0.00
2013-1-16,36.6,27.4,13.7,33.7,21.8,10.5,91,80,67,30.17,29.89,17,8,22,0.00
2013-1-17,36.8,27.5,20.1,33.6,20.5,13.1,89,76,51,30.45,30.12,11,4,15,0.00
2013-1-18,46.6,35.3,21.9,36.3,28.7,18.4,87,77,66,30.44,29.92,25,13,32,0.00
2013-1-19,50.5,40.4,22.4,39.5,32.5,11.3,85,74,56,30.12,29.77,26,13,36,0.00
2013-1-20,22.1,15.7,11.4,12.5,8.7,4.7,84,73,60,30.38,30.12,21,9,26,0.00
2013-1-21,13.7,8.2,3.7,8.0,-0.2,-5.7,81,69,50,30.39,30.25,20,12,26,0.00
2013-1-22,14.3,8.1,-0.3,3.3,-1.1,-6.2,80,66,54,30.48,30.38,13,7,18,0.00
2013-1-23,30.5,18.9,12.0,15.8,8.5,2.9,79,64,52,30.46,30.15,15,8,23,0.00
2013-1-24,21.7,14.0,5.4,11.3,3.0,-4.0,70,61,49,30.70,30.33,13,6,17,0.00
2013-1-25,37.1,25.1,16.7,23.0,15.9,8.6,89,68,51,30.33,30.02,18,8,22,0.00
2013-1-26,31.2,20.7,7.8,18.0,11.7,4.0,86,69,48,30.44,30.27,10,4,12,0.00
2013-1-27,41.6,32.2,27.0,41.1,27.9,17.1,99,85,67,30.35,29.83,18,9,22,0.43
2013-1-28,53.6,43.3,39.8,53.5,42.8,39.3,100,98,96,29.95,29.69,17,6,22,0.04
2013-1-29,61.8,52.0,37.7,59.6,51.2,37.4,100,97,91,29.68,29.41,21,9,26,1.16
2013-1-30,37.6,28.4,15.7,37.3,26.7,11.4,99,93,81,29.79,29.27,21,11,28,0.42
2013-1-31,18.1,10.4,1.9,14.4,5.4,-3.7,86,80,74,30.34,29.79,22,15,28,0.00
2013-2-1,20.4,7.5,-1.0,17.0,1.6,-6.5,87,76,69,30.47,30.17,17,9,21,0.00
2013-2-2,25.8,19.6,13.2,22.7,15.5,9.1,93,84,71,30.17,30.05,14,6,19,0.00
2013-2-3,26.5,20.8,16.2,19.6,16.5,13.5,94,84,68,30.14,29.98,18,6,26,0.00
2013-2-4,27.2,23.0,12.3,23.8,19.0,9.9,91,85,78,30.01,29.84,13,5,16,0.00
2013-2-5,36.4,27.9,12.2,31.8,24.3,9.8,92,86,77,30.13,29.85,14,7,20,0.00
2013-2-6,43.8,33.0,20.0,37.5,29.2,18.1,93,86,76,30.21,30.03,13,5,16,0.01
2013-2-7,36.7,35.0,31.8,35.9,33.7,28.9,97,95,89,30.07,29.88,12,4,15,1.00
2013-2-8,31.8,28.2,25.7,29.2,24.5,22.3,90,86,81,30.40,30.08,12,5,15,0.00
2013-2-9,36.1,30.1,25.8,31.8,27.3,22.8,94,89,82,30.40,30.01,19,8,22,0.00
2013-2-10,48.1,40.3,34.2,47.1,38.0,31.8,99,92,70,30.03,29.39,26,15,34,0.28
2013-2-11,37.8,32.3,28.2,32.8,26.1,23.2,83,78,73,30.11,29.54,29,17,39,0.00
2013-2-12,36.9,29.8,26.4,28.7,24.9,21.7,92,82,67,30.16,29.84,15,6,20,0.00
2013-2-13,43.4,34.9,26.6,35.6,30.3,24.4,92,84,68,29.91,29.70,11,5,15,0.00
2013-2-14,43.1,36.8,30.3,33.7,31.6,27.6,91,82,63,30.04,29.67,19,10,29,0.00
2013-2-15,33.2,25.9,18.8,27.6,17.4,12.0,90,70,49,30.26,30.04,13,8,21,0.00
2013-2-16,26.6,19.3,13.2,17.1,12.2,8.0,88,74,62,30.27,30.17,15,6,22,0.00
2013-2-17,36.6,24.8,11.4,26.1,17.9,8.0,87,76,59,30.23,29.88,17,8,20,0.00
2013-2-18,53.9,37.2,18.5,44.8,32.1,15.8,97,82,64,29.88,29.48,22,12,25,0.28
2013-2-19,20.7,13.7,7.8,15.9,8.7,2.1,90,80,70,30.33,29.77,23,16,28,0.00
2013-2-20,22.1,12.9,4.1,15.4,7.5,-0.4,91,79,69,30.48,30.33,9,4,13,0.00
2013-2-21,29.0,20.7,10.1,26.2,17.8,7.1,95,89,80,30.42,29.92,18,6,23,0.00
2013-2-22,32.6,27.6,22.4,30.4,24.9,19.4,96,90,81,29.97,29.79,17,8,21,0.00
2013-2-23,30.7,23.8,14.1,23.2,19.0,11.7,90,82,71,30.01,29.95,14,7,16,0.00
2013-2-24,37.1,22.0,9.1,27.7,17.7,6.6,95,84,65,30.15,30.01,6,2,7,0.07
2013-2-25,39.4,29.4,15.4,32.2,25.8,13.2,96,87,73,30.16,29.91,16,4,20,0.02
2013-2-26,34.6,32.4,30.2,31.3,30.2,29.3,98,92,82,29.91,29.55,25,13,33,0.01
2013-2-27,32.5,30.9,28.9,31.7,30.0,28.1,98,97,96,29.83,29.63,10,6,14,0.10
2013-2-28,34.5,32.4,28.5,33.1,30.7,27.3,97,93,87,30.11,29.83,12,5,16,0.00
2013-3-1,30.4,26.6,24.2,28.1,21.9,18.4,91,82,73,30.27,30.11,14,7,18,0.00
2013-3-2,29.5,21.3,10.3,19.8,14.6,7.2,91,76,58,30.29,30.22,11,3,14,0.00
2013-3-3,36.5,20.8,5.6,22.1,12.8,3.1,93,73,44,30.23,30.09,8,2,9,0.00
2013-3-4,33.2,28.6,21.9,27.8,23.6,15.6,87,81,76,30.11,29.92,21,9,25,0.00
2013-3-5,31.7,29.9,26.8,30.7,28.1,24.5,97,93,86,30.14,29.87,18,8,21,0.00
2013-3-6,30.2,26.7,21.8,25.2,22.7,18.9,90,85,77,30.37,30.14,13,6,17,0.00
2013-3-7,36.2,26.9,16.5,26.6,22.3,13.9,95,83,66,30.44,30.36,10,3,12,0.04
2013-3-8,38.3,29.0,15.9,32.2,25.4,14.0,95,87,76,30.45,30.23,16,7,21,0.03
2013-3-9,40.2,36.4,34.0,37.9,34.2,30.9,95,91,87,30.24,29.78,18,9,21,0.31
2013-3-10,42.4,39.5,36.3,41.6,38.8,35.3,99,97,90,29.79,29.56,17,3,20,1.16
2013-3-11,37.4,33.5,29.6,37.1,32.2,25.2,99,95,83,29.89,29.59,17,8,22,0.08
2013-3-12,36.1,32.2,22.9,31.4,27.5,19.3,92,83,79,30.17,29.89,13,9,18,0.00
2013-3-13,36.1,29.3,21.9,30.5,22.2,18.1,87,75,54,30.38,29.99,13,8,18,0.00
2013-3-14,45.0,32.7,23.4,35.5,27.8,20.5,92,82,66,30.38,30.06,14,5,20,0.00
2013-3-15,44.8,37.1,31.1,40.3,34.0,29.3,97,89,73,30.07,29.70,12,3,15,0.00
2013-3-16,37.5,33.6,31.4,34.0,30.4,27.0,98,88,72,30.15,29.70,14,5,16,0.00
2013-3-17,36.2,31.5,26.4,29.8,25.8,19.4,86,79,71,30.21,29.94,16,8,20,0.00
2013-3-18,36.8,30.1,22.0,34.0,26.7,15.2,95,87,71,29.94,29.68,25,10,32,0.10
2013-3-19,34.9,25.4,16.9,22.6,16.6,9.7,77,69,53,30.19,29.90,21,13,26,0.00
2013-3-20,27.0,20.9,13.7,20.7,11.8,6.2,80,68,54,30.23,30.13,21,13,28,0.00
2013-3-21,34.4,22.8,11.3,19.4,13.0,7.0,88,67,45,30.14,30.04,11,3,14,0.00
2013-3-22,42.2,29.7,16.5,25.8,20.8,14.8,95,72,44,30.11,30.02,6,1,12,0.00
2013-3-23,43.4,34.5,26.1,28.9,25.2,21.8,91,70,49,30.13,30.00,16,4,20,0.00
2013-3-24,33.3,30.9,29.0,31.0,28.9,26.7,97,92,78,30.03,29.73,16,8,20,0.00
2013-3-25,37.1,32.1,28.7,30.6,26.2,22.0,97,79,72,30.16,29.83,14,7,20,0.01
2013-3-26,39.1,34.1,29.3,30.4,27.6,25.4,87,77,65,30.31,30.16,12,5,18,0.00
2013-3-27,46.4,36.6,28.0,30.3,26.7,22.3,92,69,45,30.37,30.30,8,3,12,0.00
2013-3-28,53.3,41.8,25.0,37.9,31.7,23.0,93,69,45,30.38,30.27,6,1,7,0.00
2013-3-29,58.0,44.0,30.5,38.9,34.1,28.8,96,71,42,30.32,30.20,5,1,10,0.00
2013-3-30,57.9,45.7,34.1,44.7,38.8,30.4,92,77,53,30.21,29.85,22,7,27,0.00
2013-3-31,56.3,46.4,35.3,44.5,38.5,25.6,97,76,50,29.97,29.79,19,9,25,0.00
2013-4-1,41.1,33.5,27.0,26.3,22.8,18.9,84,66,45,30.25,29.97,19,7,24,0.00
2013-4-2,45.3,33.5,22.4,25.2,21.2,16.5,89,63,34,30.35,30.25,14,5,20,0.00
2013-4-3,49.9,35.2,22.5,24.3,20.7,16.9,88,59,28,30.47,30.30,12,3,15,0.00
2013-4-4,60.5,44.1,27.3,38.3,29.2,21.9,82,59,34,30.30,29.99,10,4,12,0.00
2013-4-5,44.9,38.4,33.6,36.2,31.3,28.1,87,76,58,30.22,30.05,13,4,17,0.00
2013-4-6,71.3,62.2,50.5,51.5,43.8,36.5,86,53,33,29.81,29.57,28,16,37,0.02
2013-4-7,65.4,52.0,37.5,46.3,42.0,35.6,94,71,44,29.93,29.69,16,5,22,0.00
2013-4-8,73.3,59.3,46.7,58.5,52.7,41.3,99,80,52,29.85,29.50,26,8,35,1.08
2013-4-9,77.7,56.6,42.7,64.6,52.4,41.0,95,87,62,29.89,29.72,21,9,26,0.00
2013-4-10,43.4,41.2,36.9,41.6,39.9,36.1,98,95,91,30.14,29.66,34,11,41,1.39
2013-4-11,47.8,42.5,37.3,46.2,41.2,33.6,98,95,86,29.71,29.58,16,7,22,0.13
2013-4-12,41.4,38.4,35.2,38.0,34.5,32.8,94,86,77,29.91,29.59,18,10,23,0.00
2013-4-13,50.4,41.2,34.3,40.1,33.5,29.1,90,75,56,30.00,29.90,16,8,21,0.00
2013-4-14,76.5,56.7,40.8,56.3,45.9,36.5,91,69,40,29.95,29.50,29,13,35,0.20
2013-4-15,62.1,52.0,41.8,56.3,47.2,38.0,98,85,52,30.00,29.63,15,5,18,0.38
2013-4-16,50.8,44.7,35.4,43.1,37.3,32.2,90,76,60,30.21,29.97,10,4,12,0.00
2013-4-17,56.2,45.1,41.3,56.2,42.5,37.0,100,91,74,30.24,29.67,25,9,32,2.38
2013-4-18,63.2,51.4,37.7,61.5,50.1,33.3,100,95,83,29.76,29.37,24,12,32,2.30
2013-4-19,38.8,36.4,34.9,33.3,30.9,28.6,89,80,73,30.01,29.56,23,15,31,0.00
2013-4-20,48.5,38.8,29.7,33.8,29.6,25.6,93,71,43,30.38,30.01,12,4,16,0.00
2013-4-21,58.9,50.4,34.7,45.1,40.5,30.1,85,70,57,30.39,30.23,22,10,28,0.00
2013-4-22,68.8,55.8,42.1,49.5,42.0,37.0,88,62,36,30.25,29.97,18,8,23,0.03
2013-4-23,52.8,42.7,38.6,49.8,40.3,34.1,97,91,80,30.03,29.91,13,6,18,0.37
2013-4-24,52.2,43.0,36.2,36.4,33.0,27.1,86,69,38,30.11,30.00,12,7,20,0.00
2013-4-25,54.9,45.0,36.2,38.9,32.1,24.4,90,63,32,30.29,30.09,18,8,24,0.01
2013-4-26,67.6,54.0,39.9,50.3,43.0,34.0,84,68,47,30.28,30.19,21,11,26,0.00
2013-4-27,65.8,55.0,41.9,50.0,46.8,40.6,97,76,51,30.25,29.96,15,5,21,0.00
2013-4-28,72.5,60.1,47.0,54.7,50.1,45.6,98,72,43,29.96,29.78,10,2,14,0.00
2013-4-29,80.3,64.9,48.3,62.0,55.4,46.7,95,74,50,29.86,29.64,20,11,26,0.00
2013-4-30,88.2,73.6,61.6,62.8,56.8,51.1,91,61,30,29.85,29.66,22,12,30,0.00
2013-5-1,86.4,73.5,61.7,57.8,53.9,48.4,78,54,27,30.08,29.85,14,8,18,0.00
2013-5-2,61.8,51.4,41.9,50.3,44.0,38.9,91,76,59,30.19,30.06,17,8,21,0.04
2013-5-3,52.8,44.2,38.4,51.8,43.1,37.4,98,96,91,30.15,29.86,17,6,22,1.70
2013-5-4,69.8,59.6,51.4,61.1,55.5,50.0,97,87,63,30.01,29.86,14,5,18,0.15
2013-5-5,74.4,61.9,50.9,57.5,52.6,47.4,99,75,40,30.01,29.90,13,4,18,0.00
2013-5-6,76.3,64.6,53.4,54.5,50.2,45.3,92,63,35,30.02,29.93,11,4,15,0.00
2013-5-7,80.4,67.4,52.7,53.6,47.3,40.6,91,53,26,30.02,29.93,6,1,9,0.00
2013-5-8,81.9,67.6,50.4,58.0,51.2,46.3,90,60,30,30.00,29.91,7,1,8,0.00
2013-5-9,71.0,63.7,60.6,63.8,60.2,56.3,97,89,71,29.92,29.75,13,6,17,0.49
2013-5-10,61.3,51.7,45.1,60.2,49.1,44.0,97,91,83,29.98,29.75,11,4,16,0.03
2013-5-11,58.2,50.7,43.6,51.8,38.8,28.6,98,68,37,30.11,29.89,23,10,31,0.01
2013-5-12,58.6,47.2,36.3,33.7,31.2,26.4,84,56,31,30.18,30.09,16,6,23,0.00
2013-5-13,70.7,54.7,33.8,46.4,36.0,29.1,90,54,24,30.18,29.92,11,3,15,0.00
2013-5-14,95.3,74.3,54.2,62.6,54.5,43.3,76,53,20,29.92,29.59,18,10,22,0.00
2013-5-15,82.7,76.2,63.0,57.4,51.4,45.3,67,43,27,29.81,29.63,20,5,25,0.00
2013-5-16,87.4,71.9,56.0,57.8,50.4,42.8,85,51,22,29.91,29.80,11,3,17,0.00
2013-5-17,81.8,69.0,65.1,61.5,60.3,57.7,87,76,46,29.89,29.85,12,6,15,0.00
2013-5-18,84.1,77.5,66.4,64.2,61.8,60.2,81,60,47,29.91,29.84,12,7,17,0.00
2013-5-19,91.3,74.8,62.0,70.5,64.9,58.8,94,73,47,29.86,29.61,25,10,34,0.09
2013-5-20,83.5,71.5,63.1,67.0,62.6,60.3,97,76,46,29.72,29.50,22,11,26,0.23
2013-5-21,79.8,70.1,61.7,64.7,60.2,57.0,95,73,49,29.66,29.58,19,10,24,0.00
2013-5-22,71.1,64.0,59.8,59.4,56.7,53.5,93,78,56,29.75,29.58,14,6,20,0.01
2013-5-23,68.2,59.0,47.9,56.3,51.3,44.2,97,78,47,30.25,29.75,14,4,20,0.06
2013-5-24,68.9,55.7,39.5,46.2,39.8,35.7,92,59,31,30.43,30.25,13,3,15,0.00
2013-5-25,57.1,50.8,48.1,49.8,45.7,40.9,94,83,61,30.38,30.23,14,6,18,0.58
2013-5-26,58.7,53.5,49.2,57.8,51.4,46.0,99,93,86,30.25,30.01,17,7,20,3.78
2013-5-27,70.9,63.5,56.5,67.1,61.9,56.2,99,95,85,30.02,29.75,14,6,18,0.22
2013-5-28,77.7,69.6,64.1,73.6,66.5,61.7,96,90,82,29.81,29.61,27,10,35,0.19
2013-5-29,84.4,73.6,63.1,74.1,67.0,59.7,93,81,63,29.86,29.67,26,9,32,0.09
2013-5-30,84.1,72.2,62.6,74.0,66.8,61.4,98,84,65,29.82,29.64,30,13,41,0.51
2013-5-31,64.7,63.7,63.1,63.4,62.0,61.3,96,94,94,29.76,29.72,12,6,15,0.11
2013-6-1,76.6,69.2,62.8,67.8,62.8,58.7,94,81,59,29.75,29.62,15,9,22,0.00
2013-6-2,63.0,59.2,50.8,59.9,52.4,47.2,93,79,61,30.02,29.74,12,4,16,0.00
2013-6-3,70.1,59.9,47.5,52.5,49.4,45.8,97,71,46,30.11,29.99,9,3,13,0.00
2013-6-4,74.0,64.2,51.8,57.3,51.9,47.9,89,66,45,30.12,29.99,17,5,23,0.00
2013-6-5,67.6,62.4,58.1,62.3,57.3,51.9,95,84,73,30.04,29.88,9,3,12,0.13
2013-6-6,68.5,60.0,55.7,60.8,56.7,54.3,97,89,75,29.90,29.85,5,1,7,0.43
2013-6-7,72.9,67.7,60.3,58.3,56.0,52.7,89,67,53,29.94,29.87,8,2,12,0.43
2013-6-8,77.4,66.6,53.9,59.7,54.4,49.9,91,67,46,29.94,29.87,11,3,14,0.00
2013-6-9,78.1,67.3,60.3,65.7,60.6,54.4,96,80,61,29.90,29.73,15,7,20,0.13
2013-6-10,76.9,67.6,60.1,67.0,62.6,59.0,98,85,64,29.85,29.71,9,2,12,0.00
2013-6-11,88.3,74.9,60.9,72.6,66.4,59.3,96,77,53,29.89,29.75,11,3,13,0.00
2013-6-12,94.2,80.5,67.2,75.9,71.5,64.8,96,76,50,29.83,29.53,21,7,26,0.07
2013-6-13,81.9,72.7,63.7,68.0,60.9,56.7,95,69,44,29.97,29.62,13,4,16,0.07
2013-6-14,80.4,70.2,57.9,61.7,58.0,54.7,91,67,44,30.10,29.91,10,3,14,0.00
2013-6-15,83.1,73.1,66.2,71.5,66.5,61.0,93,80,61,29.98,29.80,16,5,24,0.01
2013-6-16,86.8,74.8,64.6,69.7,65.2,62.4,95,74,46,29.91,29.85,7,3,14,0.00
2013-6-17,89.1,76.9,62.2,68.2,62.5,54.1,97,65,32,29.91,29.82,9,3,14,0.00
2013-6-18,79.9,70.7,60.5,65.4,59.0,54.2,87,68,50,30.01,29.84,13,6,17,0.00
2013-6-19,85.4,70.7,54.7,62.1,56.6,48.8,86,63,39,30.09,29.99,7,2,12,0.00
2013-6-20,91.6,78.4,62.0,65.4,61.9,56.5,83,59,36,30.07,29.96,12,5,17,0.00
2013-6-21,84.4,75.4,65.9,73.8,67.8,64.0,98,78,67,30.10,29.87,17,8,25,0.75
2013-6-22,89.6,77.7,68.6,79.8,72.0,65.9,94,83,70,30.03,29.86,15,8,23,0.05
2013-6-23,88.2,75.3,67.2,75.1,68.6,64.7,94,80,62,29.97,29.82,13,5,18,0.00
2013-6-24,84.4,70.6,64.7,76.1,68.0,62.7,99,92,69,30.09,29.84,20,4,45,5.06
2013-6-25,87.2,77.2,67.4,78.6,72.8,66.1,97,87,70,29.88,29.73,13,5,17,0.06
2013-6-26,86.2,76.8,67.7,77.3,72.3,65.9,96,86,70,29.75,29.66,12,3,17,0.29
2013-6-27,86.8,78.0,70.6,76.0,71.3,63.0,98,81,61,29.80,29.71,13,4,18,0.00
2013-6-28,81.9,73.8,65.6,67.4,63.6,61.7,88,71,53,29.75,29.62,13,5,20,0.00
2013-6-29,71.8,66.7,63.4,68.1,63.8,61.4,98,91,80,29.78,29.59,9,3,17,0.59
2013-6-30,78.5,69.8,62.9,67.3,61.8,55.5,95,77,60,29.98,29.78,8,4,15,0.00
2013-7-1,78.0,68.0,58.8,60.0,55.1,51.1,87,65,44,30.05,29.97,12,4,17,0.00
2013-7-2,78.3,67.7,54.7,62.2,56.5,52.0,92,69,50,30.07,29.99,10,3,16,0.00
2013-7-3,79.4,65.3,51.4,61.6,55.6,50.3,98,74,45,30.06,29.99,3,1,7,0.00
2013-7-4,86.9,72.9,57.8,68.7,62.7,54.6,92,73,47,30.04,29.96,5,1,9,0.00
2013-7-5,87.2,71.7,61.7,70.1,64.7,60.0,96,80,52,30.03,29.98,6,2,9,0.00
2013-7-6,90.1,81.7,68.6,72.8,69.1,66.2,93,68,50,29.96,29.90,5,2,10,0.00
2013-7-7,91.0,79.1,66.8,76.7,70.8,65.0,95,77,55,29.95,29.88,8,2,12,0.00
2013-7-8,87.5,78.8,71.4,78.2,73.3,69.0,94,84,70,29.95,29.90,9,4,15,0.30
2013-7-9,87.7,79.4,74.4,80.7,75.9,72.6,96,89,76,29.96,29.82,10,2,13,0.49
2013-7-10,80.0,71.1,62.3,64.9,62.5,60.4,95,75,55,29.98,29.90,10,2,12,0.00
2013-7-11,81.2,71.5,60.7,66.7,61.5,58.5,98,73,49,30.07,29.98,7,1,11,0.00
2013-7-12,87.2,71.7,55.3,69.7,61.4,54.3,98,73,44,30.12,30.02,4,1,7,0.00
2013-7-13,84.9,72.1,56.1,69.9,63.2,54.3,95,76,51,30.11,30.03,5,1,10,0.00
2013-7-14,91.4,76.7,61.3,75.1,69.0,59.9,97,79,54,30.14,30.08,4,1,8,0.00
2013-7-15,92.5,80.2,69.4,79.7,74.0,67.3,97,82,61,30.20,30.13,6,1,10,0.00
2013-7-16,94.5,81.7,69.9,81.8,75.7,69.0,99,83,59,30.25,30.18,4,1,7,0.00
2013-7-17,95.7,83.0,71.4,81.1,75.5,69.8,97,80,55,30.26,30.13,3,1,5,0.00
2013-7-18,92.8,83.5,71.6,80.6,75.9,70.7,98,80,59,30.15,29.91,6,2,9,0.00
2013-7-19,92.7,83.8,74.2,79.2,74.1,66.7,92,74,57,29.86,29.73,9,4,14,0.00
2013-7-20,88.8,78.1,65.6,73.7,68.0,63.4,94,73,50,29.89,29.79,5,1,9,0.00
2013-7-21,85.8,74.3,63.3,75.9,69.3,62.0,98,85,64,29.90,29.79,5,1,9,0.00
2013-7-22,88.6,76.0,63.2,77.8,70.3,62.3,99,84,60,29.84,29.68,17,2,22,0.59
2013-7-23,77.6,70.0,62.7,67.8,63.4,58.3,97,81,59,29.94,29.69,8,2,12,0.01
2013-7-24,77.8,65.4,53.1,63.6,57.8,52.3,98,78,50,30.05,29.94,6,1,10,0.00
2013-7-25,83.4,68.7,53.6,68.5,61.3,52.6,97,79,56,30.07,29.98,5,1,15,0.00
2013-7-26,79.2,68.1,58.5,72.6,63.7,56.5,96,86,60,30.01,29.86,11,3,14,0.61
2013-7-27,66.3,60.0,53.5,57.0,53.2,48.9,95,79,58,29.96,29.90,9,2,15,0.01
2013-7-28,72.1,61.5,52.4,58.8,53.4,48.8,94,76,54,30.03,29.89,6,1,12,0.00
2013-7-29,79.2,64.3,48.4,63.5,56.2,47.3,99,78,49,30.13,30.03,2,0,13,0.00
2013-7-30,67.9,64.8,60.8,65.8,62.7,57.0,98,93,83,30.12,30.00,6,1,10,0.26
2013-7-31,79.2,69.8,64.6,71.4,66.5,62.8,99,90,69,30.03,29.93,4,1,7,0.02
2013-8-1,83.6,70.6,58.2,68.0,62.8,57.4,99,79,48,30.01,29.88,7,1,12,0.01
2013-8-2,84.3,73.8,66.8,73.5,67.5,63.5,94,81,62,29.93,29.82,10,3,16,0.44
2013-8-3,80.3,70.1,60.1,65.4,60.9,57.4,97,75,47,30.11,29.93,5,1,8,0.00
2013-8-4,82.0,68.4,53.8,65.7,58.6,52.7,98,74,42,30.17,30.06,4,0,7,0.00
2013-8-5,74.5,65.1,57.6,69.1,62.9,56.2,99,93,82,30.06,29.83,13,2,20,1.15
2013-8-6,85.5,74.7,65.4,77.8,71.7,64.5,99,91,76,29.86,29.77,7,2,12,0.00
2013-8-7,85.7,76.6,63.7,76.5,70.7,61.8,98,83,60,29.92,29.74,7,2,10,0.00
2013-8-8,81.3,70.7,60.2,70.2,65.2,59.0,98,84,63,29.98,29.91,6,1,9,0.00
2013-8-9,80.6,70.6,59.6,72.1,65.9,58.8,98,86,69,30.06,29.95,5,1,8,0.00
2013-8-10,79.8,68.5,56.9,64.1,59.8,55.8,98,76,50,30.13,30.04,7,1,10,0.00
2013-8-11,82.3,69.9,56.6,70.3,63.6,55.3,96,82,63,30.11,29.98,7,1,12,0.00
2013-8-12,82.4,72.7,64.3,72.4,66.4,59.7,94,81,61,30.00,29.86,6,2,10,0.00
2013-8-13,74.7,63.7,49.1,59.8,55.0,48.3,98,75,49,30.15,29.93,7,1,14,0.00
2013-8-14,79.7,61.9,48.7,60.4,52.8,47.6,99,76,39,30.21,30.11,4,0,7,0.00
2013-8-15,77.5,63.9,52.8,62.9,55.6,50.4,94,77,47,30.15,30.08,3,0,5,0.00
2013-8-16,81.9,65.8,49.4,63.9,56.7,48.6,99,76,45,30.16,30.11,4,0,9,0.00
2013-8-17,81.3,66.5,52.0,64.5,58.4,51.2,98,78,47,30.20,30.11,6,1,9,0.00
2013-8-18,82.9,67.4,50.0,68.6,59.2,49.2,99,78,46,30.19,30.06,5,0,7,0.00
2013-8-19,84.1,70.6,57.4,71.1,64.3,55.9,96,82,59,30.09,29.98,5,1,9,0.00
2013-8-20,86.7,74.3,63.6,72.5,67.2,62.1,96,80,56,30.06,29.97,6,1,12,0.00
2013-8-21,88.1,76.9,66.6,73.7,69.4,64.7,94,79,58,30.03,29.93,9,3,12,0.00
2013-8-22,78.0,72.8,63.4,71.6,68.2,62.2,97,86,76,30.09,29.96,14,2,18,0.00
2013-8-23,84.3,70.9,59.8,71.3,64.1,59.2,99,82,49,30.13,30.06,9,2,12,0.00
2013-8-24,88.3,73.4,57.8,73.3,65.9,55.8,95,79,59,30.20,30.10,5,2,9,0.00
2013-8-25,90.1,77.3,68.0,74.6,69.1,65.1,94,77,53,30.19,30.08,7,3,13,0.00
2013-8-26,91.3,78.0,64.4,77.8,71.0,62.3,95,80,58,30.11,29.94,7,2,9,0.00
2013-8-27,94.0,81.7,70.7,77.7,72.6,68.2,95,76,52,29.96,29.81,12,4,17,0.00
2013-8-28,95.7,81.9,70.2,80.4,73.4,66.4,93,77,59,29.96,29.84,8,2,12,0.00
2013-8-29,87.4,76.3,67.7,75.7,71.7,66.6,98,86,65,30.03,29.92,7,2,9,0.00
2013-8-30,97.5,82.4,70.6,80.0,74.0,68.2,98,78,47,29.92,29.71,14,3,22,0.00
2013-8-31,83.3,75.7,68.8,73.6,70.3,66.5,95,84,70,29.78,29.72,7,2,10,0.00
2013-9-1,90.2,74.3,61.2,75.6,66.8,60.3,100,80,51,29.83,29.70,8,2,15,0.00
2013-9-2,79.3,67.9,57.2,64.7,59.3,54.3,97,76,47,29.99,29.83,8,2,12,0.00
2013-9-3,79.8,63.4,47.6,62.4,55.6,46.8,99,79,47,30.07,29.98,5,1,8,0.00
2013-9-4,86.8,68.0,48.7,68.3,58.6,47.9,99,76,43,30.12,30.02,6,1,12,0.00
2013-9-5,89.4,72.6,60.9,71.8,63.8,58.6,93,76,50,30.16,30.08,10,2,13,0.00
2013-9-6,89.4,72.2,55.9,68.0,61.5,53.3,92,72,44,30.16,29.96,7,2,12,0.00
2013-9-7,92.6,76.8,63.0,73.5,67.8,60.3,93,75,51,29.97,29.82,8,3,13,0.00
2013-9-8,87.3,77.1,70.6,73.0,70.2,67.4,93,80,61,29.95,29.84,11,5,15,0.00
2013-9-9,98.8,82.1,68.8,75.5,71.7,67.2,98,74,43,29.87,29.76,7,3,12,0.00
2013-9-10,97.3,82.0,67.7,70.6,66.6,63.0,85,63,35,29.96,29.84,13,4,16,0.00
2013-9-11,77.4,74.5,71.5,67.2,66.1,65.5,82,75,70,30.00,29.94,7,3,10,0.00
2013-9-14,76.4,65.0,52.8,47.9,46.7,44.5,80,55,33,30.07,29.98,6,2,10,0.00
2013-9-15,63.3,58.6,52.9,60.2,54.2,46.9,95,86,63,30.17,29.93,6,2,10,0.48
2013-9-16,70.8,58.6,51.0,55.1,51.4,47.1,96,79,44,30.35,30.17,8,3,13,0.00
2013-9-17,70.7,59.8,44.5,59.3,53.3,43.2,97,80,63,30.30,30.04,9,3,14,0.00
2013-9-18,84.6,71.8,60.9,73.2,65.5,56.6,95,81,65,30.05,29.82,12,5,16,0.35
2013-9-19,93.4,79.2,67.4,72.1,69.2,65.2,96,74,46,29.86,29.68,15,8,26,0.42
2013-9-20,71.4,65.3,54.0,66.3,58.9,51.7,97,81,51,29.87,29.75,10,4,15,0.51
2013-9-21,70.5,58.2,48.3,52.7,49.8,46.4,95,76,48,29.93,29.85,8,3,15,0.00
2013-9-22,72.9,57.2,42.2,52.0,47.7,41.4,98,74,40,30.05,29.93,6,2,10,0.00
2013-9-23,75.4,59.7,45.1,53.4,49.3,43.2,94,72,42,30.06,29.94,11,4,18,0.00
2013-9-24,76.6,60.6,45.2,55.2,50.8,43.8,96,73,45,29.97,29.85,13,4,18,0.00
2013-9-25,79.8,63.3,50.8,56.2,52.8,49.4,96,72,41,29.93,29.85,8,3,12,0.00
2013-9-26,77.7,59.2,49.4,61.3,53.0,48.1,97,82,53,30.00,29.91,10,3,13,0.00
2013-9-27,84.9,67.2,52.3,60.4,52.5,48.4,89,63,32,30.08,29.96,14,4,20,0.00
2013-9-28,83.0,66.5,54.5,67.7,59.3,52.8,95,79,52,29.98,29.84,21,7,26,0.02
2013-9-29,74.0,58.0,44.7,57.7,46.8,41.6,99,72,32,30.07,29.96,6,1,12,0.02
2013-9-30,78.6,60.9,41.1,56.8,48.6,39.5,97,68,35,29.98,29.81,11,4,16,0.00
2013-10-1,84.7,69.1,55.0,66.0,60.8,52.7,97,77,46,29.93,29.83,15,6,20,0.00
2013-10-2,85.2,70.4,58.0,66.8,60.3,51.1,97,74,40,30.03,29.89,13,4,16,0.00
2013-10-3,82.8,71.7,66.3,71.6,66.9,62.1,97,86,64,29.90,29.76,12,5,16,0.08
2013-10-4,77.4,71.2,65.2,72.4,67.5,62.6,98,88,72,29.93,29.80,13,4,17,0.59
2013-10-5,77.4,69.3,54.3,71.0,63.9,46.7,96,83,70,29.85,29.74,13,6,17,0.00
2013-10-6,54.6,47.7,42.3,44.6,42.1,39.3,95,82,60,29.81,29.72,12,5,16,0.02
2013-10-7,72.5,56.5,41.9,50.8,46.4,40.3,97,73,39,30.06,29.80,15,4,20,0.00
2013-10-8,79.3,60.3,44.4,51.7,46.9,42.5,94,67,31,30.15,30.06,12,3,15,0.00
2013-10-9,75.7,58.0,42.0,52.3,46.0,40.9,96,69,32,30.18,30.08,10,3,14,0.00
2013-10-10,78.1,59.3,40.2,58.5,50.4,39.1,97,76,44,30.14,29.98,10,2,13,0.00
2013-10-11,79.2,65.5,53.9,60.8,55.7,51.8,95,73,45,30.00,29.83,16,6,22,0.00
2013-10-12,71.5,62.0,42.4,60.5,49.9,38.8,89,67,35,30.19,29.85,13,5,18,0.00
2013-10-13,66.6,50.8,38.1,46.0,37.1,32.9,90,64,30,30.40,30.19,9,1,13,0.00
2013-10-14,66.4,48.5,31.4,46.4,38.4,30.1,96,72,38,30.39,30.05,14,4,18,0.00
2013-10-15,69.0,57.6,47.1,61.9,50.0,40.8,95,77,54,30.04,29.76,17,8,22,0.15
2013-10-16,52.1,50.2,47.8,46.2,44.8,43.3,93,82,76,29.97,29.86,13,7,18,0.00
2013-10-17,61.4,49.9,41.3,46.6,41.9,35.9,95,76,40,29.94,29.82,12,4,16,0.05
2013-10-18,49.9,45.5,40.8,42.3,39.0,36.1,95,78,65,29.99,29.84,11,6,14,0.00
2013-10-19,55.2,45.6,35.1,39.5,36.1,31.9,89,71,45,29.95,29.79,18,6,23,0.00
2013-10-20,66.0,50.9,36.9,47.2,41.8,33.1,93,73,45,29.85,29.69,13,4,17,0.00
2013-10-21,53.7,42.0,30.7,43.7,31.0,24.0,82,66,42,30.00,29.81,15,6,21,0.00
2013-10-22,35.9,32.4,24.6,34.5,30.5,22.3,97,93,81,30.01,29.90,6,2,10,0.39
2013-10-23,42.5,37.0,28.2,36.4,32.0,26.3,95,83,62,30.08,29.99,9,4,13,0.15
2013-10-24,40.2,34.8,27.2,35.3,26.3,22.7,90,71,55,30.36,30.07,9,5,13,0.00
2013-10-25,53.8,38.8,22.6,35.5,27.3,20.6,94,67,36,30.43,30.06,16,6,22,0.00
2013-10-26,53.8,45.1,33.7,37.4,31.5,27.3,81,60,39,30.12,29.90,15,8,20,0.00
2013-10-27,57.0,40.5,26.5,35.2,29.8,23.7,93,69,38,30.09,29.95,12,3,16,0.00
2013-10-28,61.2,44.2,29.5,43.2,35.6,26.7,92,73,44,30.34,30.03,13,4,20,0.00
2013-10-29,59.5,45.6,34.3,49.3,38.8,32.5,95,79,50,30.32,30.09,11,5,14,0.00
2013-10-30,60.6,55.3,51.9,59.9,54.4,49.4,98,97,92,30.09,29.73,16,5,20,1.59
2013-10-31,63.1,55.4,44.4,62.2,53.9,41.6,98,95,90,29.73,29.31,14,8,20,0.33
2013-11-1,49.1,45.6,41.7,45.1,42.9,40.0,95,90,83,29.78,29.46,12,6,14,0.01
2013-11-2,51.6,41.4,30.8,41.6,36.1,27.9,97,82,59,30.16,29.77,11,4,16,0.01
2013-11-3,53.9,40.0,24.8,40.0,33.2,23.6,96,79,50,30.28,30.15,13,5,17,0.00
2013-11-4,57.7,50.3,43.2,46.0,41.8,37.2,81,73,57,30.17,30.03,21,10,24,0.00
2013-11-5,55.1,52.7,50.2,53.3,49.7,45.7,96,90,79,30.20,29.85,18,9,24,0.09
2013-11-6,56.4,44.8,31.3,55.8,41.1,27.4,98,87,68,30.23,29.74,18,9,25,0.12
2013-11-7,42.7,33.6,26.1,36.6,29.6,23.8,92,85,72,30.30,30.23,14,4,20,0.00
2013-11-8,49.8,39.8,25.5,37.5,31.5,23.5,93,73,53,30.33,29.85,21,8,28,0.00
2013-11-9,59.8,49.5,39.0,42.9,39.2,34.6,85,68,51,30.20,29.85,20,11,26,0.00
2013-11-10,49.4,40.4,30.4,34.4,31.8,27.0,88,72,52,30.40,30.20,13,5,17,0.00
2013-11-11,48.2,38.1,23.0,37.8,31.0,17.4,95,76,63,30.60,30.08,16,8,18,0.05
2013-11-12,30.8,20.8,15.8,23.3,16.0,12.1,88,82,64,30.78,30.60,9,3,12,0.00
2013-11-13,43.9,31.7,15.9,22.8,19.1,12.7,89,62,38,30.65,30.16,18,10,23,0.00
2013-11-14,53.1,41.3,32.4,30.9,26.4,20.0,71,56,40,30.16,29.92,16,10,20,0.00
2013-11-15,55.3,42.6,35.3,37.3,31.8,25.5,89,66,46,29.97,29.85,13,8,17,0.00
2013-11-16,60.7,52.4,39.0,56.7,49.5,35.8,92,90,84,29.86,29.49,25,14,34,0.00
2013-11-17,68.3,54.0,42.5,63.9,50.8,38.6,99,89,79,29.84,29.12,24,13,30,0.44
2013-11-18,44.8,38.3,26.8,38.4,31.7,23.4,88,78,61,30.30,29.83,22,10,29,0.00
2013-11-19,45.1,32.7,21.3,32.5,27.3,19.2,95,81,57,30.37,30.21,11,5,13,0.00
2013-11-20,40.6,36.8,31.6,38.0,33.2,28.7,95,87,72,30.23,30.03,17,8,20,0.34
2013-11-21,45.8,41.9,39.7,43.1,39.9,37.8,96,93,88,30.26,30.06,9,3,12,0.01
2013-11-22,40.2,31.1,21.1,38.6,29.0,19.0,95,92,87,30.53,30.26,11,6,15,0.04
2013-11-23,24.2,19.7,9.3,18.8,12.3,4.7,93,73,52,30.79,30.51,16,7,20,0.00
2013-11-24,24.3,16.6,7.2,13.3,10.1,4.1,89,76,59,30.79,30.38,11,4,13,0.00
2013-11-25,34.3,29.1,18.5,27.9,22.4,13.4,86,76,62,30.38,30.11,15,8,20,0.00
2013-11-26,32.9,26.7,15.0,27.2,19.5,8.2,91,75,58,30.28,30.08,15,7,20,0.00
2013-11-27,28.6,18.5,11.3,14.3,10.3,6.0,84,71,50,30.36,30.24,9,4,16,0.00
2013-11-28,35.3,25.0,14.2,21.1,16.6,11.8,91,71,54,30.54,30.16,10,5,13,0.00
2013-11-29,37.2,24.5,9.9,24.6,17.8,7.7,93,77,51,30.64,30.36,11,4,14,0.00
2013-11-30,51.6,36.2,26.4,35.8,29.2,22.9,92,77,54,30.37,30.04,16,6,20,0.00
2013-12-1,46.2,35.9,27.3,33.4,29.9,25.0,95,80,60,30.14,29.96,7,2,9,0.00
2013-12-2,44.8,37.2,32.1,37.3,33.6,28.6,96,87,72,29.96,29.67,13,6,20,0.03
2013-12-3,48.1,41.8,34.4,47.8,41.2,33.4,99,98,95,29.68,29.59,10,5,12,0.01
2013-12-4,51.8,44.4,28.4,51.5,43.6,25.5,99,97,89,29.80,29.47,21,7,30,0.01
2013-12-5,28.2,21.0,14.0,25.5,15.4,8.7,90,79,70,30.38,29.80,18,11,23,0.00
2013-12-6,19.2,13.8,8.8,12.0,7.3,4.3,82,75,60,30.64,30.33,11,6,14,0.00
2013-12-7,18.4,9.7,3.0,7.3,3.2,-0.7,86,75,53,30.79,30.62,7,3,10,0.00
2013-12-8,22.1,18.6,12.4,20.4,15.0,6.5,95,86,73,30.63,30.02,12,3,16,0.00
2013-12-9,22.0,9.0,-8.9,20.4,4.6,-12.7,94,82,71,30.30,30.02,16,8,20,0.00
2013-12-10,20.9,13.1,-5.9,14.3,6.7,-10.0,86,75,65,30.34,30.06,24,9,29,0.00
2013-12-11,18.2,8.9,-6.0,15.0,3.7,-10.9,92,79,64,30.66,30.30,14,5,20,0.00
2013-12-12,23.0,10.7,-5.3,16.4,5.5,-9.5,90,79,71,30.63,30.25,14,6,20,0.00
2013-12-13,30.1,20.9,8.7,25.9,17.9,6.1,96,88,78,30.25,30.06,13,3,17,0.00
2013-12-14,28.6,24.5,15.1,27.1,22.5,11.9,96,92,85,30.08,29.98,14,7,19,0.00
2013-12-15,16.8,13.2,9.6,13.3,8.4,4.6,90,81,73,30.17,30.06,17,6,20,0.00
2013-12-16,20.8,16.0,12.3,19.1,13.2,9.5,94,89,83,30.16,30.04,8,4,12,0.00
2013-12-17,34.2,25.6,16.4,28.4,21.2,14.7,94,84,72,30.20,30.05,21,11,26,0.02
2013-12-18,36.9,25.5,11.6,29.5,19.8,8.2,89,79,59,30.20,29.82,15,6,20,0.00
2013-12-19,37.5,33.9,26.6,34.2,31.4,24.1,97,91,84,29.90,29.76,11,4,14,0.09
2013-12-20,33.5,29.9,28.0,33.0,29.0,26.8,98,96,95,29.86,29.74,11,4,14,0.10
2013-12-21,28.4,27.4,26.6,27.3,26.1,25.4,97,95,93,29.89,29.77,8,2,9,0.00
2013-12-22,28.1,24.2,17.5,26.4,22.0,14.6,97,91,88,30.23,29.79,11,7,15,0.00
2013-12-23,17.5,3.0,-5.8,14.8,-1.3,-9.9,90,82,76,30.58,30.23,14,7,16,0.00
2013-12-24,19.1,2.8,-12.0,14.1,-1.6,-15.6,88,81,67,30.65,30.34,13,5,17,0.00
2013-12-25,27.0,23.8,19.1,24.7,20.5,13.7,92,87,78,30.34,30.16,18,10,23,0.00
2013-12-26,35.0,24.6,11.8,30.8,21.2,9.4,95,87,78,30.30,30.14,17,7,21,0.03
2013-12-27,37.7,29.8,16.8,32.9,26.2,15.1,96,87,78,30.31,30.11,18,7,23,0.14
2013-12-28,42.6,37.1,29.5,35.5,32.4,27.2,94,83,75,30.12,29.80,16,9,20,0.00
2013-12-29,36.3,20.8,0.5,31.4,16.8,-5.4,95,84,76,30.32,29.79,16,10,21,0.00
2013-12-30,10.9,4.1,-3.2,6.7,-1.2,-8.2,89,79,61,30.39,30.25,6,2,12,0.00
2013-12-31,16.5,7.0,-6.4,12.2,3.5,-10.0,90,86,73,30.42,30.26,15,4,18,0.00
2014-1-1,14.3,11.6,9.3,12.2,8.7,6.2,91,88,84,30.30,30.23,15,10,20,0.00
2014-1-2,14.2,8.4,-4.4,8.2,3.7,-7.3,89,81,74,30.50,30.25,12,6,17,0.00